Location: Newark
(43.0000°N, 1.6781°W)
Time: 09:42:47
(UTC+00:00)

AO-7 - Pass Details

Date: 15 December 2022
Orbit: 1440 x 1459 km, 101.9° (Epoch: 28 January)

Event Time Altitude Azimuth Distance (km) Brightness Sun altitude
Rises 17:09:14 0° 200° (SSW) 4,522 ? -6.7°
Reaches altitude 10° 17:12:38 10° 213° (SSW) 3,547 ? -7.3°
Maximum altitude 17:19:12 26° 266° (W) 2,537 ? -8.3°
Drops below altitude 10° 17:25:49 10° 320° (NW) 3,560 ? -9.4°
Sets 17:29:17 0° 333° (NNW) 4,543 ? -10.0°
